Content
SEND FEEDBACK

Daily
Averages
Monthly
Summary
Canada

QUEBEC CITY, QUEBEC


Home > North America > Canada > Quebec
Elevation: 239 feet     Latitude: 46 48N     Longitude: 071 23W

WEATHER
 
SELECT A DAY
Number of Records: 195,887;   Date Range: 6/30/96 - 10/23/14
 
SHARE

PRINT THIS DATA

[ ← Previous Day ]
WEATHER ALMANAC - JULY 8, 2013
[ Next Day → ]
[ °C ]   °F
We're sorry. There is no daily almanac available for Quebec City, Quebec on July 8, 2013.
WEATHER BY HOUR - JULY 8, 2013
[ °C ]   °F
Local TimeTemperatureDewpointHumidityBarometerVisibilityWind DirectionWind SpeedGust SpeedPrecipitationEventsConditions
1:00 AM66.2 °F51.8 °F60 %29.99 in15.0 miNE (50°)5.8 mphMostly Cloudy
2:00 AM64.0 °F52.0 °F55 %29.97 inNE (50°)3.5 mph
2:00 AM64.4 °F51.8 °F64 %29.99 in15.0 miNE (40°)9.2 mphMostly Cloudy
3:00 AM64.4 °F51.8 °F64 %30.00 in15.0 miNE (40°)10.4 mphMostly Cloudy
4:00 AM64.4 °F50.0 °F59 %30.00 in15.0 miENE (60°)8.1 mphMostly Cloudy
5:00 AM63.0 °F53.0 °F60 %29.99 inEast (80°)4.6 mph
5:00 AM64.4 °F51.8 °F64 %30.01 in15.0 miENE (70°)6.9 mphMostly Cloudy
6:00 AM64.4 °F51.8 °F64 %30.04 in20.0 miNE (50°)9.2 mphMostly Cloudy
7:00 AM64.4 °F51.8 °F64 %30.05 in25.0 miENE (60°)12.7 mphMostly Cloudy
8:00 AM63.0 °F50.0 °F53 %30.04 inENE (60°)9.2 mph
8:00 AM64.4 °F48.2 °F56 %30.06 in25.0 miENE (60°)16.1 mphMostly Cloudy
9:00 AM66.2 °F50.0 °F56 %30.07 in25.0 miENE (70°)13.8 mphScattered Clouds
10:00 AM68.0 °F50.0 °F52 %30.07 in25.0 miENE (60°)13.8 mphPartly Cloudy
11:00 AM68.0 °F49.0 °F40 %30.05 inENE (70°)10.4 mph
11:00 AM68.0 °F48.2 °F49 %30.07 in25.0 miENE (70°)11.5 mphMostly Cloudy
12:00 PM69.8 °F46.4 °F43 %30.08 in25.0 miEast (80°)9.2 mph17.3 mphMostly Cloudy
1:00 PM71.6 °F44.6 °F38 %30.06 in25.0 miEast (80°)10.4 mph18.4 mphScattered Clouds
2:00 PM73.0 °F50.0 °F33 %30.04 inENE (70°)5.8 mph
2:00 PM73.4 °F50.0 °F44 %30.06 in30.0 miEast (90°)8.1 mphScattered Clouds
3:00 PM73.4 °F48.2 °F41 %30.06 in30.0 miEast (90°)4.6 mphScattered Clouds
4:00 PM75.2 °F50.0 °F41 %30.05 in30.0 miEast (90°)5.8 mphMostly Cloudy
5:00 PM74.0 °F53.0 °F36 %30.01 inEast (80°)3.5 mph
5:00 PM75.2 °F50.0 °F41 %30.04 in30.0 miENE (60°)5.8 mphMostly Cloudy
6:00 PM73.4 °F50.0 °F44 %30.03 in30.0 miENE (70°)6.9 mphMostly Cloudy
7:00 PM71.6 °F48.2 °F43 %30.05 in30.0 miENE (60°)8.1 mphMostly Cloudy
8:00 PM69.0 °F53.0 °F46 %30.04 inEast (90°)4.6 mph
8:00 PM69.8 °F50.0 °F49 %30.06 in25.0 miENE (70°)8.1 mphMostly Cloudy
8:39 PM68.0 °F0.0 °F20.0 miEast (80°)6.9 mphRainLight Rain Showers
9:00 PM68.0 °F51.8 °F56 %30.07 in15.0 miENE (60°)6.9 mphMostly Cloudy
10:00 PM68.0 °F48.2 °F49 %30.08 in15.0 miNE (50°)5.8 mphOvercast
11:00 PM66.0 °F55.0 °F60 %30.06 inNE (40°)1.2 mph
11:00 PM68.0 °F48.2 °F49 %30.08 in15.0 miNNE (30°)4.6 mphOvercast
Hourly data recorded from CYQB, located miles away from Quebec City, Quebec







STORIES FROM OUR PARTNERS